WA6MEM Weather Reports


time (UTC)temp
F
wind
direction
speed
knots
gust
knots
rain 1hr
in
rain 24hr
in
rain mn
in
humidity
%
barometer
mb
20260510002003 68 159 2.6 0.0 0.00 0.00 0.00 77 1009.9
20260510001506 68 200 2.6 0.0 0.00 0.00 0.00 77 1009.9
20260510001003 68 165 1.7 0.0 0.00 0.00 0.00 76 1009.9
20260510000502 68 211 1.7 0.0 0.00 0.00 0.00 76 1009.9
20260510000004 68 126 1.7 0.0 0.00 0.00 0.00 78 1010.0
20260509235501 68 133 1.7 0.0 0.00 0.00 0.00 77 1010.0
20260509235001 68 126 1.7 0.0 0.00 0.00 0.00 77 1010.0
20260509234600 68 180 2.6 0.0 0.00 0.00 0.00 78 1010.0
20260509234100 67 182 2.6 0.0 0.00 0.00 0.00 78 1010.1
20260509233600 67 126 1.7 0.0 0.00 0.00 0.00 79 1010.1
20260509233059 66 136 1.7 0.0 0.00 0.00 0.00 80 1010.1
20260509232600 66 173 1.7 0.0 0.00 0.00 0.00 80 1010.2
20260509232059 66 161 1.7 0.0 0.00 0.00 0.00 81 1010.2
20260509231609 66 188 1.7 0.0 0.00 0.00 0.00 79 1010.2
20260509231059 66 190 1.7 0.0 0.00 0.00 0.00 80 1010.1
20260509230604 66 155 2.6 0.0 0.00 0.00 0.00 81 1010.1
20260509230058 66 156 2.6 0.0 0.00 0.00 0.00 80 1010.1
20260509225558 66 196 2.6 0.0 0.00 0.00 0.00 80 1010.2
20260509225057 67 182 2.6 0.0 0.00 0.00 0.00 79 1010.2
20260509224558 67 213 2.6 0.0 0.00 0.00 0.00 79 1010.2
20260509224056 67 147 1.7 0.0 0.00 0.00 0.00 80 1010.3
20260509223555 67 212 2.6 0.0 0.00 0.00 0.00 81 1010.3
20260509223055 66 192 2.6 0.0 0.00 0.00 0.00 81 1010.3
20260509222552 66 207 2.6 0.0 0.00 0.00 0.00 82 1010.8
20260509222051 65 211 1.7 0.0 0.00 0.00 0.00 83 1010.8
20260509221551 65 166 2.6 0.0 0.00 0.00 0.00 84 1010.8
20260509221052 65 167 2.6 0.0 0.00 0.00 0.00 84 1010.9
20260509220551 64 211 2.6 0.0 0.00 0.00 0.00 85 1010.9
20260509220050 64 184 2.6 0.0 0.00 0.00 0.00 85 1010.9
20260509215554 64 190 2.6 0.0 0.00 0.00 0.00 84 1011.0
20260509215050 64 163 2.6 0.0 0.00 0.00 0.00 86 1011.0
20260509214549 64 181 2.6 0.0 0.00 0.00 0.00 85 1011.0
20260509214053 64 175 3.5 0.0 0.00 0.00 0.00 84 1011.1
20260509213549 65 157 3.5 0.0 0.00 0.00 0.00 85 1011.1
20260509213049 65 131 2.6 0.0 0.00 0.00 0.00 84 1011.1
20260509212548 65 136 2.6 0.0 0.00 0.00 0.00 84 1011.3
20260509212049 65 142 2.6 0.0 0.00 0.00 0.00 83 1011.3
20260509211555 65 160 2.6 0.0 0.00 0.00 0.00 83 1011.3
20260509211048 65 206 2.6 0.0 0.00 0.00 0.00 83 1011.4
20260509210548 65 239 2.6 0.0 0.00 0.00 0.00 83 1011.4
20260509210054 65 212 2.6 0.0 0.00 0.00 0.00 83 1011.4
20260509205545 65 188 2.6 0.0 0.00 0.00 0.00 84 1011.4
20260509205044 65 148 2.6 0.0 0.00 0.00 0.00 85 1011.4
20260509204546 64 175 2.6 0.0 0.00 0.00 0.00 86 1011.4
20260509204044 64 160 2.6 0.0 0.00 0.00 0.00 85 1011.5
20260509203545 64 178 2.6 0.0 0.00 0.00 0.00 85 1011.5
20260509203042 64 164 2.6 0.0 0.00 0.00 0.00 87 1011.5
20260509202541 63 198 2.6 0.0 0.00 0.00 0.00 88 1011.7
20260509202041 63 171 2.6 0.0 0.00 0.00 0.00 89 1011.7
20260509201539 63 181 2.6 0.0 0.00 0.00 0.00 89 1011.7
20260509201037 62 155 2.6 0.0 0.00 0.00 0.00 90 1011.9
20260509200538 62 211 3.5 0.0 0.00 0.00 0.00 89 1011.9
20260509200043 62 153 2.6 0.0 0.00 0.00 0.00 90 1011.9
20260509195538 62 167 2.6 0.0 0.00 0.00 0.00 90 1012.1
20260509195033 61 180 2.6 0.0 0.00 0.00 0.00 91 1012.1
20260509194535 61 161 2.6 0.0 0.00 0.00 0.00 90 1012.1
20260509194035 61 205 2.6 0.0 0.00 0.00 0.00 91 1012.2
20260509193533 61 198 3.5 0.0 0.00 0.00 0.00 91 1012.2
20260509193032 61 159 3.5 0.0 0.00 0.00 0.00 91 1012.2
20260509192531 61 179 3.5 0.0 0.00 0.00 0.00 92 1012.3
20260509192031 61 247 3.5 0.0 0.00 0.00 0.00 92 1012.3
20260509191530 61 169 2.6 0.0 0.00 0.00 0.00 92 1012.3
20260509191033 61 207 2.6 0.0 0.00 0.00 0.00 93 1012.2
20260509190531 61 159 2.6 0.0 0.00 0.00 0.00 94 1012.2
20260509190035 61 151 2.6 0.0 0.00 0.00 0.00 94 1012.2
20260509185531 61 195 2.6 0.0 0.00 0.00 0.00 94 1012.4
20260509185031 60 196 2.6 0.0 0.00 0.00 0.00 95 1012.4
20260509184534 60 204 2.6 0.0 0.00 0.00 0.00 95 1012.4
20260509184027 60 157 2.6 0.0 0.00 0.00 0.00 95 1012.5
20260509183526 60 161 2.6 0.0 0.00 0.00 0.00 96 1012.5
20260509183025 59 139 2.6 0.0 0.00 0.00 0.00 96 1012.5
20260509182524 59 179 2.6 0.0 0.00 0.00 0.00 96 1012.6
20260509182023 59 155 2.6 0.0 0.00 0.00 0.00 96 1012.6
20260509181523 59 175 1.7 0.0 0.00 0.00 0.00 96 1012.6
20260509181023 59 215 1.7 0.0 0.00 0.00 0.00 96 1012.7
20260509180522 58 164 1.7 0.0 0.00 0.00 0.00 96 1012.7
20260509180023 58 118 1.7 0.0 0.00 0.00 0.00 96 1012.7
20260509175518 57 163 1.7 0.0 0.00 0.00 0.00 96 1012.8
20260509175018 57 176 1.7 0.0 0.00 0.00 0.00 96 1012.8
20260509174519 57 183 0.9 0.0 0.00 0.00 0.00 96 1012.8
20260509174017 57 157 0.9 0.0 0.00 0.00 0.00 96 1012.8
20260509173517 57 173 1.7 0.0 0.00 0.00 0.00 96 1012.8
20260509173049 57 165 1.7 0.0 0.00 0.00 0.00 96 1012.8
20260509172517 57 201 1.7 0.0 0.00 0.00 0.00 96 1012.7
20260509172017 57 141 0.9 0.0 0.00 0.00 0.00 96 1012.7
20260509171526 57 174 0.9 0.0 0.00 0.00 0.00 96 1012.7
20260509171016 57 175 0.9 0.0 0.00 0.00 0.00 96 1012.4
20260509170516 57 28 1.7 0.0 0.00 0.00 0.00 96 1012.4
20260509170017 57 5 1.7 0.0 0.00 0.00 0.00 96 1012.4
20260509165515 57 36 1.7 0.0 0.00 0.00 0.00 96 1012.4
20260509165015 57 92 0.9 0.0 0.00 0.00 0.00 96 1012.4
20260509164517 57 27 0.9 0.0 0.00 0.00 0.00 96 1012.4
20260509164016 56 69 0.9 0.0 0.00 0.00 0.00 96 1012.5
20260509163513 56 73 0.9 0.0 0.00 0.00 0.00 96 1012.5
20260509163021 56 5 1.7 0.0 0.00 0.00 0.00 96 1012.5
20260509162513 56 30 1.7 0.0 0.00 0.00 0.00 96 1012.5
20260509162012 56 132 1.7 0.0 0.00 0.00 0.00 96 1012.5
20260509161512 56 105 1.7 0.0 0.00 0.00 0.00 96 1012.5
20260509161012 56 63 1.7 0.0 0.00 0.00 0.00 96 1012.4
20260509160512 56 57 0.9 0.0 0.00 0.00 0.00 96 1012.4
20260509160020 56 5 0.9 0.0 0.00 0.00 0.00 96 1012.4
20260509155510 56 32 0.9 0.0 0.00 0.00 0.00 96 1012.4
20260509155013 55 42 1.7 0.0 0.00 0.00 0.00 96 1012.4
20260509154510 55 44 2.6 0.0 0.00 0.00 0.00 96 1012.4
20260509154009 55 64 2.6 0.0 0.00 0.00 0.00 96 1012.5
20260509153509 55 63 1.7 0.0 0.00 0.00 0.00 96 1012.5
20260509153016 55 79 1.7 0.0 0.00 0.00 0.00 96 1012.5
20260509152509 55 69 1.7 0.0 0.00 0.00 0.00 96 1012.5
20260509152009 55 34 1.7 0.0 0.00 0.00 0.00 96 1012.5
20260509151509 55 61 1.7 0.0 0.00 0.00 0.00 96 1012.5
20260509151011 55 132 1.7 0.0 0.00 0.00 0.00 96 1012.4
20260509150508 55 50 1.7 0.0 0.00 0.00 0.00 96 1012.4
20260509150010 55 91 0.9 0.0 0.00 0.00 0.00 96 1012.4
20260509145508 55 26 0.9 0.0 0.00 0.00 0.00 96 1012.4
20260509145008 55 27 1.7 0.0 0.00 0.00 0.00 96 1012.4
20260509144507 55 24 2.6 0.0 0.00 0.00 0.00 96 1012.4
20260509144007 55 21 1.7 0.0 0.00 0.00 0.00 96 1012.3
20260509143509 55 67 0.9 0.0 0.00 0.00 0.00 96 1012.3
20260509143011 55 94 0.9 0.0 0.00 0.00 0.00 96 1012.3
20260509142506 55 30 1.7 0.0 0.00 0.00 0.00 96 1012.3
20260509142007 55 34 1.7 0.0 0.00 0.00 0.00 96 1012.3
20260509141507 54 67 1.7 0.0 0.00 0.00 0.00 96 1012.3
20260509141008 55 90 1.7 0.0 0.00 0.00 0.00 96 1012.2
20260509140506 54 71 1.7 0.0 0.00 0.00 0.00 96 1012.2
20260509140006 54 80 1.7 0.0 0.00 0.00 0.00 96 1012.2
20260509135506 54 26 1.7 0.0 0.00 0.00 0.00 96 1012.2
20260509135006 54 103 1.7 0.0 0.00 0.00 0.00 96 1012.2
20260509134506 54 24 1.7 0.0 0.00 0.00 0.00 96 1012.2
20260509134008 54 31 1.7 0.0 0.00 0.00 0.00 96 1012.1
20260509133506 54 37 1.7 0.0 0.00 0.00 0.00 96 1012.1
20260509133005 54 24 1.7 0.0 0.00 0.00 0.00 96 1012.1
20260509132505 54 55 1.7 0.0 0.00 0.00 0.00 96 1011.8
20260509132006 54 31 1.7 0.0 0.00 0.00 0.00 96 1011.8
20260509131505 54 63 2.6 0.0 0.00 0.00 0.00 96 1011.8
20260509131005 54 73 3.5 0.0 0.00 0.00 0.00 96 1011.7
20260509130505 54 30 2.6 0.0 0.00 0.00 0.00 96 1011.7
20260509130013 54 48 1.7 0.0 0.00 0.00 0.00 96 1011.5
20260509125505 54 69 1.7 0.0 0.00 0.00 0.00 96 1011.5
20260509125004 54 61 2.6 0.0 0.00 0.00 0.00 96 1011.5
20260509124515 54 67 2.6 0.0 0.00 0.00 0.00 96 1011.6
20260509124003 54 22 1.7 0.0 0.00 0.00 0.00 96 1011.6
20260509123504 54 59 1.7 0.0 0.00 0.00 0.00 96 1011.6
20260509123004 54 55 2.6 0.0 0.00 0.00 0.00 96 1011.7
20260509122504 54 88 2.6 0.0 0.00 0.00 0.00 96 1011.7
20260509122002 54 36 1.7 0.0 0.00 0.00 0.00 96 1011.7
20260509121502 54 82 1.7 0.0 0.00 0.00 0.00 96 1011.4
20260509121003 54 55 2.6 0.0 0.00 0.00 0.00 96 1011.4
20260509120501 54 78 0.9 0.0 0.00 0.00 0.00 96 1011.4
20260509120002 54 47 0.9 0.0 0.00 0.00 0.00 96 1011.5
20260509115500 54 25 1.7 0.0 0.00 0.00 0.00 96 1011.5
20260509115002 54 5 1.7 0.0 0.00 0.00 0.00 96 1011.5
20260509114627 54 22 1.7 0.0 0.00 0.00 0.00 95 1011.5
20260509114100 54 49 1.7 0.0 0.00 0.00 0.00 95 1011.5
20260509113600 54 355 1.7 0.0 0.00 0.00 0.00 95 1011.5
20260509113134 54 34 1.7 0.0 0.00 0.00 0.00 95 1011.5
20260509112600 54 51 1.7 0.0 0.00 0.00 0.00 96 1011.4
20260509112058 54 75 0.9 0.0 0.00 0.00 0.00 95 1011.4
20260509111558 54 71 0.9 0.0 0.00 0.00 0.00 95 1011.4
20260509111057 55 92 0.9 0.0 0.00 0.00 0.00 95 1011.4
20260509110557 55 99 0.9 0.0 0.00 0.00 0.00 95 1011.4
20260509105557 55 60 1.7 0.0 0.00 0.00 0.00 95 1011.4
20260509105057 55 62 1.7 0.0 0.00 0.00 0.00 95 1011.4
20260509104557 55 81 1.7 0.0 0.00 0.00 0.00 95 1011.4
20260509104056 55 25 0.9 0.0 0.00 0.00 0.00 95 1011.5
20260509103556 55 124 0.9 0.0 0.00 0.00 0.00 95 1011.5
20260509103107 55 57 1.7 0.0 0.00 0.00 0.00 95 1011.5
20260509102556 55 46 1.7 0.0 0.00 0.00 0.00 96 1011.5
20260509102056 55 34 2.6 0.0 0.00 0.00 0.00 95 1011.5
20260509101602 55 35 2.6 0.0 0.00 0.00 0.00 95 1011.5
20260509101055 55 49 1.7 0.0 0.00 0.00 0.00 95 1011.6
20260509100554 55 40 1.7 0.0 0.00 0.00 0.00 95 1011.6
20260509100054 55 41 1.7 0.0 0.00 0.00 0.00 95 1011.6
20260509095553 55 73 0.9 0.0 0.00 0.00 0.00 96 1011.7
20260509095053 55 5 1.7 0.0 0.00 0.00 0.00 96 1011.7
20260509094559 55 27 1.7 0.0 0.00 0.00 0.00 96 1011.7
20260509094058 55 86 0.9 0.0 0.00 0.00 0.00 95 1011.9
20260509093554 54 53 0.9 0.0 0.00 0.00 0.00 95 1011.9
20260509093053 54 98 0.9 0.0 0.00 0.00 0.00 95 1011.9
20260509092552 54 133 0.9 0.0 0.00 0.00 0.00 95 1011.9
20260509092052 54 118 0.9 0.0 0.00 0.00 0.00 95 1011.9
20260509091554 54 112 0.9 0.0 0.00 0.00 0.00 95 1011.9
20260509091051 54 112 0.9 0.0 0.00 0.00 0.00 95 1012.1
20260509090552 54 151 0.0 0.0 0.00 0.00 0.00 95 1012.1
20260509090050 54 111 0.0 0.0 0.00 0.00 0.00 95 1012.1
20260509085550 54 111 0.0 0.0 0.00 0.00 0.00 95 1012.2
20260509085054 54 111 0.0 0.0 0.00 0.00 0.00 95 1012.2
20260509084601 55 111 0.0 0.0 0.00 0.00 0.00 95 1012.2
20260509084050 55 111 1.7 0.0 0.00 0.00 0.00 95 1012.2
20260509083550 55 120 1.7 0.0 0.00 0.00 0.00 95 1012.2
20260509083049 54 69 0.9 0.0 0.00 0.00 0.00 95 1012.2
20260509082549 54 149 0.0 0.0 0.00 0.00 0.00 95 1012.3
20260509082049 54 149 0.0 0.0 0.00 0.00 0.00 95 1012.3
20260509081553 54 143 0.0 0.0 0.00 0.00 0.00 95 1012.3
20260509081049 54 143 0.0 0.0 0.00 0.00 0.00 95 1012.4
20260509080547 54 143 0.0 0.0 0.00 0.00 0.00 95 1012.4
20260509080051 54 143 0.0 0.0 0.00 0.00 0.00 95 1012.4
20260509075547 54 143 0.0 0.0 0.00 0.00 0.00 95 1012.7
20260509075046 54 143 0.0 0.0 0.00 0.00 0.00 95 1012.7
20260509074546 54 143 0.0 0.0 0.00 0.00 0.00 95 1012.7
20260509074046 54 143 0.0 0.0 0.00 0.00 0.00 95 1012.7
20260509073546 54 143 0.0 0.0 0.00 0.00 0.00 95 1012.7
20260509073047 54 143 0.9 0.0 0.00 0.00 0.00 95 1012.7
20260509072548 54 143 0.0 0.0 0.00 0.00 0.00 95 1012.7
20260509072044 54 143 0.0 0.0 0.00 0.00 0.00 95 1012.7
20260509071548 55 143 0.0 0.0 0.00 0.00 0.00 95 1012.7
20260509071044 55 143 0.0 0.0 0.00 0.00 0.00 95 1012.9
20260509070546 55 143 0.0 0.0 0.00 0.00 0.00 95 1012.9
20260509070049 54 143 0.0 0.0 0.00 0.00 0.00 95 1012.9
20260509065542 54 143 0.0 0.0 0.00 0.00 0.00 95 1012.9
20260509065043 54 143 0.9 0.0 0.00 0.00 0.00 95 1012.9
20260509064554 54 143 0.9 0.0 0.00 0.00 0.00 95 1012.9
20260509064041 54 170 0.0 0.0 0.00 0.00 0.00 95 1013.0
20260509063541 54 170 0.9 0.0 0.00 0.00 0.00 95 1013.0
20260509063042 54 170 0.9 0.0 0.00 0.00 0.00 95 1013.0
20260509062542 54 167 0.9 0.0 0.00 0.00 0.00 95 1013.2
20260509062042 54 171 0.9 0.0 0.00 0.00 0.00 95 1013.2
20260509061551 54 180 0.9 0.0 0.00 0.00 0.00 95 1013.2
20260509061042 55 159 0.9 0.0 0.00 0.00 0.00 95 1013.2
20260509060541 55 154 0.9 0.0 0.00 0.00 0.00 95 1013.2
20260509060042 55 183 0.9 0.0 0.00 0.00 0.00 95 1013.2
20260509055540 55 183 0.9 0.0 0.00 0.00 0.00 95 1013.2
20260509055040 55 156 0.9 0.0 0.00 0.00 0.00 95 1013.2
20260509054546 55 195 0.9 0.0 0.00 0.00 0.00 95 1013.2
20260509054040 55 171 0.9 0.0 0.00 0.00 0.00 95 1013.1
20260509053541 55 165 0.9 0.0 0.00 0.00 0.00 95 1013.1
20260509053040 55 182 0.9 0.0 0.00 0.00 0.00 95 1013.1
20260509052542 55 180 0.9 0.0 0.00 0.00 0.00 95 1013.1
20260509052040 55 178 0.9 0.0 0.00 0.00 0.00 95 1013.1
20260509051542 55 228 0.9 0.0 0.00 0.00 0.00 95 1013.1
20260509051040 55 194 0.9 0.0 0.00 0.00 0.00 95 1013.0
20260509050543 55 236 0.9 0.0 0.00 0.00 0.00 95 1013.0
20260509050040 55 166 0.9 0.0 0.00 0.00 0.00 95 1013.0
20260509045539 55 198 0.9 0.0 0.00 0.00 0.00 95 1013.0
20260509045039 55 180 0.0 0.0 0.00 0.00 0.00 95 1013.0
20260509044539 55 202 0.0 0.0 0.00 0.00 0.00 95 1013.0
20260509044039 55 214 0.0 0.0 0.00 0.00 0.00 94 1013.0
20260509043542 55 214 0.0 0.0 0.00 0.00 0.00 94 1013.0
20260509043039 55 216 0.9 0.0 0.00 0.00 0.00 94 1013.0
20260509042538 55 202 1.7 0.0 0.00 0.00 0.00 94 1012.9
20260509042038 55 172 1.7 0.0 0.00 0.00 0.00 94 1012.9
20260509041538 55 194 0.9 0.0 0.00 0.00 0.00 94 1012.9
20260509041039 55 221 0.9 0.0 0.00 0.00 0.00 94 1012.8
20260509040538 55 205 1.7 0.0 0.00 0.00 0.00 94 1012.8
20260509040042 55 216 1.7 0.0 0.00 0.00 0.00 94 1012.8
20260509035539 55 186 0.9 0.0 0.00 0.00 0.00 94 1012.7
20260509035038 55 162 1.7 0.0 0.00 0.00 0.00 94 1012.7
20260509034539 55 180 1.7 0.0 0.00 0.00 0.00 94 1012.7
20260509034036 55 171 1.7 0.0 0.00 0.00 0.00 94 1012.4
20260509033540 55 200 0.9 0.0 0.00 0.00 0.00 94 1012.4
20260509033037 56 191 0.9 0.0 0.00 0.00 0.00 94 1012.4
20260509032538 56 227 1.7 0.0 0.00 0.00 0.00 94 1012.4
20260509032037 56 180 1.7 0.0 0.00 0.00 0.00 94 1012.4
20260509031543 56 212 1.7 0.0 0.00 0.00 0.00 94 1012.4
20260509031037 56 193 1.7 0.0 0.00 0.00 0.00 94 1012.3
20260509030536 56 200 1.7 0.0 0.00 0.00 0.00 94 1012.3
20260509030036 56 198 0.9 0.0 0.00 0.00 0.00 94 1012.3
20260509025535 56 196 0.9 0.0 0.00 0.00 0.00 94 1012.2
20260509025039 56 188 0.9 0.0 0.00 0.00 0.00 94 1012.2
20260509024535 56 187 1.7 0.0 0.00 0.00 0.00 94 1012.2
20260509024036 56 186 1.7 0.0 0.00 0.00 0.00 94 1012.1
20260509023536 56 177 1.7 0.0 0.00 0.00 0.00 94 1012.1
20260509023036 57 229 0.9 0.0 0.00 0.00 0.00 94 1012.1
20260509022535 57 197 1.7 0.0 0.00 0.00 0.00 94 1011.9
20260509022034 57 229 1.7 0.0 0.00 0.00 0.00 94 1011.9
20260509021535 57 182 2.6 0.0 0.00 0.00 0.00 93 1011.9
20260509021037 57 202 2.6 0.0 0.00 0.00 0.00 93 1011.9
20260509020534 57 176 2.6 0.0 0.00 0.00 0.00 93 1011.9
20260509020033 57 247 3.5 0.0 0.00 0.00 0.00 93 1011.9
20260509015533 57 165 3.5 0.0 0.00 0.00 0.00 93 1011.8
20260509015034 58 211 2.6 0.0 0.00 0.00 0.00 93 1011.8
20260509014540 58 198 2.6 0.0 0.00 0.00 0.00 92 1011.8
20260509014033 58 191 2.6 0.0 0.00 0.00 0.00 93 1011.8
20260509013533 58 202 1.7 0.0 0.00 0.00 0.00 92 1011.8
20260509013036 58 279 1.7 0.0 0.00 0.00 0.00 92 1011.8
20260509012533 59 196 1.7 0.0 0.00 0.00 0.00 92 1011.9
20260509012034 59 209 1.7 0.0 0.00 0.00 0.00 92 1011.9
20260509011533 59 242 2.6 0.0 0.00 0.00 0.00 92 1011.9
20260509011032 59 171 3.5 0.0 0.00 0.00 0.00 92 1011.8
20260509010532 59 206 2.6 0.0 0.00 0.00 0.00 92 1011.8
20260509010038 59 166 2.6 0.0 0.00 0.00 0.00 91 1011.8
20260509005533 60 210 2.6 0.0 0.00 0.00 0.00 91 1011.8
20260509005033 60 186 1.7 0.0 0.00 0.00 0.00 91 1011.8
20260509004533 60 162 2.6 0.0 0.00 0.00 0.00 90 1011.8
20260509004032 60 170 2.6 0.0 0.00 0.00 0.00 89 1012.0
20260509003532 60 215 2.6 0.0 0.00 0.00 0.00 89 1012.0
20260509003031 61 185 2.6 0.0 0.00 0.00 0.00 89 1012.0
20260509002530 61 240 3.5 0.0 0.00 0.00 0.00 88 1012.0